Weather History for Assiniboia, SK

Change the Weather History Date:

Wednesday, August 28, 2013

  Actual Average Record
Temperature  
Mean Temperature 77 °F -  
Max Temperature 94 °F - - ()
Min Temperature 60 °F - - ()
Cooling Degree Days 12    
Growing Degree Days 27 (Base 50)    
Moisture  
Dew Point 52 °F    
Average Humidity 47    
Maximum Humidity 77    
Minimum Humidity 16    
Precipitation  
Precipitation 0.00 in - - ()
Sea Level Pressure  
Sea Level Pressure 29.90 in    
Wind  
Wind Speed 7 mph ()    
Max Wind Speed 15 mph    
Max Gust Speed 24 mph    
T = Trace of Precipitation, MM = Missing Value Source: Averaged Metar Reports

Daily Weather History Graph

Daily Weather History Graph

Search for Another Location

Airport:

Trip Planner

Search our weather history database for the weather conditions in past years. The results will help you decide how hot, cold, wet, or windy it might be!

Date:

Astronomy

Aug. 28, 2013 Rise Set
Actual Time 6:13 AM CST 7:54 PM CST
Civil Twilight 5:39 AM CST 8:28 PM CST
Nautical Twilight 4:58 AM CST 9:10 PM CST
Astronomical Twilight 4:12 AM CST 9:55 PM CST
Moon 11:51 PM CST (8/28) 2:51 PM CST (8/28)
Length of Visible Light 14h 48m
Length of Day
13h 41m
Waning Gibbous, 47% of the Moon is Illuminated
Aug 28
Waning Gibbous
Sep 5
New
Sep 12
First Quarter
Sep 19
Full
Sep 26
Last Quarter

Hourly Weather History & Observations

Time (CST) Temp. Heat Index Dew Point Humidity Pressure Visibility Wind Dir Wind Speed Gust Speed Precip Events Conditions
12:00 AM 64 °F - 49 °F 49% 29.92 in - SE 6.9 mph - -  
12:00 AM 64.2 °F - 49.5 °F 59% 29.92 in - SE 6.9 mph - N/A   Unknown
1:00 AM 65.1 °F - 51.6 °F 62% 29.91 in - SSE 8.1 mph - N/A   Unknown
2:00 AM 64.4 °F - 53.2 °F 67% 29.92 in - SSE 6.9 mph - N/A   Unknown
3:00 AM 61.2 °F - 52.5 °F 73% 29.92 in - ESE 4.6 mph - N/A   Unknown
4:00 AM 63.9 °F - 54.3 °F 71% 29.91 in - SE 4.6 mph - N/A   Unknown
5:00 AM 63.1 °F - 54.7 °F 74% 29.91 in - SE 4.6 mph - N/A   Unknown
6:00 AM 64 °F - 56 °F 70% 29.94 in - NW 8.1 mph - -  
6:00 AM 63.9 °F - 56.5 °F 77% 29.94 in - NW 8.1 mph 20.7 mph N/A   Unknown
7:00 AM 66.4 °F - 57.2 °F 72% 29.94 in - SE 5.8 mph - N/A   Unknown
8:00 AM 69.4 °F - 58.3 °F 68% 29.94 in - SE 3.5 mph - N/A   Unknown
9:00 AM 74.7 °F - 59.2 °F 58% 29.94 in - SSE 6.9 mph - N/A   Unknown
10:00 AM 83.5 °F 82.9 °F 57.2 °F 41% 29.94 in - SSE 8.1 mph - N/A   Unknown
11:00 AM 87.8 °F 86.1 °F 55.0 °F 33% 29.93 in - South 11.5 mph 18.4 mph N/A   Unknown
12:00 PM 91 °F - 51 °F 16% 29.91 in - South 12.7 mph - -  
12:00 PM 90.7 °F - 50.7 °F 25% 29.91 in - South 12.7 mph 20.7 mph N/A   Unknown
1:00 PM 93.0 °F - 43.0 °F 18% 29.89 in - South 13.8 mph 21.9 mph N/A   Unknown
2:00 PM 93.2 °F - 47.5 °F 21% 29.89 in - South 12.7 mph 24.2 mph N/A   Unknown
3:00 PM 94.5 °F - 46.6 °F 19% 29.87 in - South 11.5 mph 19.6 mph N/A   Unknown
4:00 PM 93.6 °F - 45.5 °F 19% 29.85 in - South 12.7 mph 21.9 mph N/A   Unknown
5:00 PM 91.9 °F - 47.1 °F 21% 29.84 in - South 11.5 mph 20.7 mph N/A   Unknown
6:00 PM 89.6 °F - 47.7 °F 23% 29.85 in - South 10.4 mph 17.3 mph N/A   Unknown
7:00 PM 83.8 °F - 50.4 °F 31% 29.86 in - SSE 6.9 mph - N/A   Unknown
8:00 PM 79.7 °F - 53.4 °F 40% 29.86 in - SSE 6.9 mph - N/A   Unknown
9:00 PM 73.0 °F - 54.0 °F 51% 29.88 in - East 4.6 mph - N/A   Unknown
10:00 PM 75.6 °F - 55.0 °F 49% 29.90 in - NE 12.7 mph - N/A   Unknown
11:00 PM 72.5 °F - 56.7 °F 57% 29.91 in - NNE 15.0 mph - N/A   Unknown